This demonstration page uses our WeatherBlox Daily Observations layout. Learn more.

Left ArrowRight Arrow

34.02893, -84.19858

Hourly Observations for February 23, 2017

Temp ( °F °C ) Dew Point ( °F °C ) Humidity (%) Winds ( mph kmh ) Pressure ( in mb ) Visibility ( mi km ) Precip ( " mm )
12:53 am 00:53 Cloudy 58 14.4 54 12.2 87 87 E 5 7 29.88 1012 9 14 0.00 0.00
1:29 am 01:29 Partly Cloudy 57 13.9 54 12.2 90 90 Calm 29.88 1012 9 14 0.00 0.00
1:53 am 01:53 Clear 57 13.9 53 11.7 87 87 E 3 6 29.86 1011 9 14 0.00 0.00
2:53 am 02:53 Clear 56 13.3 53 11.7 90 90 VRB 3 6 29.85 1011 8 13 0.00 0.00
3:53 am 03:53 Clear 55 12.8 53 11.7 93 93 Calm 29.85 1011 7 11 0.00 0.00
4:53 am 04:53 Clear 55 12.8 52 11.1 90 90 Calm 29.86 1011 7 11 0.00 0.00
5:53 am 05:53 Clear with Mist and Fog 54 12.2 52 11.1 93 93 VRB 3 6 29.88 1012 5 8 0.00 0.00
6:53 am 06:53 Clear with Mist and Fog 53 11.7 51 10.6 93 93 Calm 29.89 1012 5 8 0.00 0.00
7:53 am 07:53 Sunny with Mist and Fog 55 12.8 53 11.7 93 93 Calm 29.90 1013 4 6 0.00 0.00
8:53 am 08:53 Sunny 59 15 54 12.2 83 83 ENE 8 13 29.91 1013 7 11 0.00 0.00
9:53 am 09:53 Sunny 64 17.8 55 12.8 73 73 VRB 5 7 29.91 1013 10 16 0.00 0.00
10:53 am 10:53 Sunny 67 19.4 54 12.2 63 63 VRB 5 7 29.90 1012 10 16 0.00 0.00
11:53 am 11:53 Sunny 70 21.1 53 11.7 55 55 VRB 6 9 29.88 1012 10 16 0.00 0.00
12:53 pm 12:53 Mostly Sunny 72 22.2 52 11.1 50 50 ESE 7 11 29.84 1011 10 16 0.00 0.00
1:53 pm 13:53 Mostly Sunny 73 22.8 51 10.6 46 46 VRB 6 9 29.82 1010 10 16 0.00 0.00
2:53 pm 14:53 Sunny 73 22.8 49 9.4 43 43 VRB 5 7 29.80 1009 10 16 0.00 0.00
3:53 pm 15:53 Sunny 74 23.3 49 9.4 41 41 S 6 9 29.78 1009 10 16 0.00 0.00
4:53 pm 16:53 Sunny 74 23.3 48 8.9 40 40 VRB 5 7 29.79 1009 10 16 0.00 0.00
5:53 pm 17:53 Sunny 73 22.8 48 8.9 41 41 SE 5 7 29.80 1009 10 16 0.00 0.00
6:53 pm 18:53 Clear 69 20.6 48 8.9 47 47 Calm 29.83 1010 10 16 0.00 0.00
7:53 pm 19:53 Clear 62 16.7 50 10 65 65 Calm 29.84 1011 10 16 0.00 0.00
8:53 pm 20:53 Clear 60 15.6 50 10 70 70 Calm 29.85 1011 10 16 0.00 0.00
9:53 pm 21:53 Clear 63 17.2 49 9.4 60 60 Calm 29.85 1011 10 16 0.00 0.00
10:53 pm 22:53 Clear 62 16.7 49 9.4 62 62 SE 3 6 29.85 1011 10 16 0.00 0.00
11:53 pm 23:53 Clear 61 16.1 48 8.9 63 63 Calm 29.85 1011 10 16 0.00 0.00

Powered by AerisWeather